Regional Weather Roundup
Issued by NWS

Home | Current Version | Previous Version | Graphics & Text | Print | Product List | Glossary On
Versions: 1 2 3 4 5 6 7 8 9 10 11 12 13 14 15 16 17 18 19 20 21 22 23 24 25 26 27 28 29 30 31 32 33 34 35 36 37 38 39 40 41 42 43 44 45 46 47 48 49 50
000
ASUS43 KMPX 210010
RWRMN
WEATHER ROUNDUP FOR MINNESOTA
NATIONAL WEATHER SERVICE TWIN CITIES/CHANHASSEN MN
700 PM CDT SUN AUG 20 2017


NOTE: "FAIR" INDICATES FEW OR NO CLOUDS BELOW 12,000 FEET WITH NO
SIGNIFICANT WEATHER AND/OR OBSTRUCTIONS TO VISIBILITY. N/A MEANS
CURRENT SKY AND/OR WEATHER CONDITIONS ARE NOT AVAILABLE.

MNZ060>063-068>070-210100-
   Twin Cities Metro

CITY           SKY/WX    TMP DP  RH WIND       PRES   REMARKS
TWIN CITIES    CLOUDY    81  66  60 NW8       29.95R
6HR MIN TEMP:  81; 6HR MAX TEMP:  86;

ST PAUL        CLOUDY    81  68  64 N9        29.94R
CRYSTAL        CLOUDY    79  64  60 NW7       29.95R
BLAINE         PTSUNNY   81  66  61 NW9       29.96R
LAKEVILLE      PTSUNNY   75  73  94 CALM      29.96R
EDEN PRAIRIE   CLOUDY    80  66  62 NW10      29.95R
6HR MIN TEMP:  80; 6HR MAX TEMP:  86;

SOUTH ST PAUL  CLOUDY    81  67  63 W5        29.94S
LAKE ELMO      FAIR      79  70  73 N5        29.96S
$$
MNZ001>005-007-008-013>017-022>024-027-028-210100-
   Northwest Minnesota

CITY           SKY/WX    TMP DP  RH WIND       PRES   REMARKS
BEMIDJI        CLOUDY    72  48  43 W6        30.00R
HALLOCK        SUNNY     75  37  25 NW7       29.96R
ROSEAU         SUNNY     75  46  35 W5        29.96S
WARROAD        SUNNY     73  48  40 W7        29.95S
THIEF RVR FALL SUNNY     74  44  34 NW8       29.99S
CROOKSTON      SUNNY     75  43  31 N8        29.99R
FOSSTON        SUNNY     75  43  31 W6        30.00R
DETROIT LAKES  MOSUNNY   70  52  52 W6        30.03S
MOORHEAD       SUNNY     73  52  46 CALM      30.01R
PARK RAPIDS    PTSUNNY   72  54  53 W6        30.01R
MAHNOMEN       FAIR      72  52  49 CALM      30.00S
$$
MNZ006-009>011-018-025>026-210100-
   North Central Minnesota

CITY           SKY/WX    TMP DP  RH WIND       PRES   REMARKS
BAUDETTE       SUNNY     73  47  39 W10       29.94S
FLAG ISLAND    HAZE      73  45  35 W6        29.92S VSB 1
INTL FALLS     SUNNY     71  50  47 W6        29.94R
6HR MIN TEMP:  71; 6HR MAX TEMP:  76;

WASKISH        CLOUDY    73  50  43 W6        29.97R
BIG FORK       CLOUDY    70  54  56 SW6       29.98R
LONGVILLE      CLOUDY    66  61  82 CALM      30.00R
GRAND RAPIDS   SUNNY     70  55  59 W5        30.00R
CRANE LAKE     CLOUDY    72  52  49 CALM      29.95R
ORR            PTSUNNY   70  52  52 CALM      29.93R
COOK           MOSUNNY   70  52  52 CALM      29.96R
WALKER         FAIR      69  55  61 SW5       30.00R
$$
MNZ012-019>021-037-210100-
   Northeast Minnesota

CITY           SKY/WX    TMP DP  RH WIND       PRES   REMARKS
DULUTH         SUNNY     71  59  65 W7        29.96R
6HR MIN TEMP:  71; 6HR MAX TEMP:  78;

ELY            SUNNY     70  52  52 W6        29.95R
HIBBING        SUNNY     69  55  60 W3        29.97R
EVELETH        SUNNY     71  47  43 W5        29.98R
DULUTH HARBOR  SUNNY     75  61  60 NW9       29.94R
TWO HARBORS    SUNNY     75  63  64 W3        29.93R
SILVER BAY     SUNNY     72  57  60 CALM      29.92R
GRAND MARAIS     N/A     74  61  63 W3        29.87R
G MARAIS ARPRT CLEAR     66  52  59 W6        29.94R
$$
MNZ029>031-032-039>041-046>048-054>057-064-210100-
   West Central Minnesota

CITY           SKY/WX    TMP DP  RH WIND       PRES   REMARKS
FERGUS FALLS   CLOUDY    70  57  64 NW6       30.01S
WHEATON        LGT RAIN  66  59  77 W3        30.04F
MORRIS         CLOUDY    70  63  78 NW7       30.03R
ALEXANDRIA     CLOUDY    70  58  65 NW7       30.04F
ELBOW LAKE     FAIR      68  59  72 CALM      30.03S HAZE
WADENA         CLOUDY    70  55  60 W5        30.02R
GLENWOOD       CLOUDY    72  61  68 CALM      30.02F
APPLETON       MOSUNNY   72  61  68 NW3       30.01F
BENSON         MOSUNNY   72  61  68 N6        30.03S
ORTONVILLE     PTSUNNY   68  59  73 MISG      30.02S
MADISON        SUNNY     72  63  73 CALM      30.03R
WILLMAR        FAIR      73  64  73 NW5       30.03R
$$
MNZ033>034-036-042>043-049>051-058-059-210100-
   Central Minnesota

CITY           SKY/WX    TMP DP  RH WIND       PRES   REMARKS
ST CLOUD       MOSUNNY   75  63  66 NW9       29.99R
6HR MIN TEMP:  75; 6HR MAX TEMP:  78;

SAUK CENTRE    FAIR      72  59  64 W5        30.03R
PAYNESVILLE    CLOUDY    73  62  68 N6        30.01S
AITKIN         SUNNY     72  59  64 CALM      29.99R
PINE RIVER     CLOUDY    70  55  60 CALM      30.03R
BRAINERD       SUNNY     72  57  59 W5        29.99R
STAPLES        MOSUNNY   70  55  60 W3        30.01S
LONG PRAIRIE   FAIR      72  59  64 W6        30.02S
LITTLE FALLS   MOSUNNY   72  55  56 W5        30.01R
LITCHFIELD     CLOUDY    75  64  69 NW6       30.01R
BUFFALO        CLOUDY    74  64  69 NW7       30.00R
MAPLE LAKE     CLOUDY    74  67  77 NW3       30.01R
HUTCHINSON     SUNNY     75  67  77 NW7       30.01R
$$
MNZ037-044-045-052-053-210100-
   East Central Minnesota

CITY           SKY/WX    TMP DP  RH WIND       PRES   REMARKS
PRINCETON      SUNNY     75  64  69 W3        29.99R
MORA           SUNNY     70  59  68 NW5       29.99R
CAMBRIDGE      SUNNY     77  63  61 CALM      29.98R
RUSH CITY      MOSUNNY   74  64  70 CALM      29.98R HAZE
MOOSE LAKE     SUNNY     72  59  64 W3        29.96R
HINCKLEY       FAIR      73  63  68 W3        29.97R
CLOQUET        SUNNY     72  55  56 W8        29.97R
MCGREGOR       SUNNY     72  55  56 W5        29.99R
$$
MNZ071>073-080-081-089-090-097-098-210100-
   Southwest Minnesota

CITY           SKY/WX    TMP DP  RH WIND       PRES   REMARKS
MONTEVIDEO     SUNNY     73  61  64 N7        30.04R
GRANITE FALLS  MOSUNNY   73  64  73 N7        30.03S
CANBY          MOSUNNY   72  59  65 CALM      30.05R
MARSHALL       MOSUNNY   70  63  78 N9        30.02S
REDWOOD FALLS  MOSUNNY   73  66  78 NW9       29.99S
OLIVIA         MOSUNNY   73  66  78 NW7       30.00S
PIPESTONE      PTSUNNY   73  61  64 NE10      30.02S
WINDOM         SUNNY     75  66  73 N12       30.01R
WORTHINGTON    MOSUNNY   76  69  79 N10       30.01R
JACKSON        SUNNY     77  68  73 CALM      30.00R
TRACY          PTSUNNY   72  67  83 N8        30.02R
SLAYTON        MOSUNNY   73  61  65 N10       30.02S HAZE
$$
MNZ065>067-074>077-082>085-091>093-210100-
   South Central Minnesota

CITY           SKY/WX    TMP DP  RH WIND       PRES   REMARKS
MANKATO        CLOUDY    79  71  76 NW6       29.97R
NEW ULM        MOSUNNY   75  66  73 N9        29.98R
ST JAMES       CLOUDY    79  70  73 NW5       29.99R
FAIRMONT       SUNNY     81  72  74 CALM      29.98R
GLENCOE        MOSUNNY   76  71  84 NW6       29.98R
FARIBAULT      MOSUNNY   79  72  78 CALM      29.97R
OWATONNA       MOSUNNY   79  72  78 CALM      29.97R
WASECA         PTSUNNY   77  70  78 CALM      29.98R
ALBERT LEA     SUNNY     82  70  65 CALM      29.98R
$$
MNZ078>079-086>088-094>096-210100-
   Southeast Minnesota

CITY           SKY/WX    TMP DP  RH WIND       PRES   REMARKS
ROCHESTER      MOSUNNY   80  72  76 CALM      29.99R
6HR MIN TEMP:  78; 6HR MAX TEMP:  83;

RED WING       CLOUDY    82  68  61 CALM      29.93S
STANTON        MOSUNNY   80  71  74 CALM      29.95R
DODGE CENTER   SUNNY     77  68  73 S5        29.99R
WINONA         MOSUNNY   81  66  61 CALM      29.96R
AUSTIN         MOSUNNY   81  70  69 CALM      29.98R
PRESTON        SUNNY     78  66  66 S6        30.00R
$$
ABBREVIATIONS USED IN REMARKS
   TC - TEMPERATURES IN CELSIUS
  WCI - WIND CHILL INDEX
   HX - HEAT INDEX
  VSB - VISIBILITY
$$



USA.gov is the U.S. government's official web portal to all federal, state and local government web resources and services.